QPF
0.02 0.02 0.02 0.03 0.02 0.03 0.03 0.04 0.04 0.04 0.04 0.04 0.05 0.06 0.05 0.05 0.05 0.04 0.03 0.04 0.03 0.03 0.04 0.04 0.03 0.03 0.03 0.02 0.02 0.02 0.02 0.02 0.02 0.02 0.02 0.03 0.03 0.03 0.02 0.02 0.02 0.02 0.02
0.03 0.02 0.02 0.03 0.03 0.03 0.03 0.04 0.04 0.04 0.04 0.03 0.04 0.05 0.06 0.05 0.05 0.05 0.05 0.04 0.04 0.04 0.04 0.04 0.05 0.04 0.03 0.02 0.01 0.01 0.02 0.02 0.02 0.02 0.02 0.03 0.03 0.04 0.04 0.03 0.02 0.02 0.01
0.04 0.02 0.02 0.02 0.03 0.03 0.03 0.04 0.04 0.05 0.03 0.02 0.02 0.04 0.04 0.06 0.06 0.06 0.05 0.06 0.05 0.06 0.05 0.04 0.04 0.05 0.05 0.03 0.02 0.02 0.03 0.02 0.01 0.01 0.01 0.01 0.02 0.03 0.03 0.04 0.04 0.03 0.02
0.04 0.02 0.02 0.02 0.03 0.02 0.05 0.04 0.04 0.03 0.03 0.02 0.03 0.04 0.04 0.05 0.05 0.06 0.04 0.05 0.05 0.06 0.07 0.06 0.04 0.05 0.06 0.05 0.04 0.04 0.03 0.02 0.01 0.01 0.01 0.01 0.01 0.02 0.02 0.03 0.03 0.03 0.02
0.04 0.02 0.02 0.03 0.03 0.02 0.03 0.03 0.04 0.05 0.05 0.04 0.04 0.03 0.03 0.04 0.04 0.06 0.06 0.06 0.05 0.05 0.06 0.09 0.07 0.06 0.09 0.09 0.08 0.08 0.05 0.03 0.02 0.01 0.01 0.01 0.01 0.02 0.02 0.02 0.03 0.02 0.02
0.03 0.03 0.02 0.03 0.03 0.03 0.04 0.04 0.04 0.03 0.04 0.05 0.05 0.04 0.04 0.05 0.03 0.04 0.05 0.06 0.07 0.07 0.08 0.08 0.06 0.05 0.07 0.08 0.08 0.08 0.08 0.07 0.05 0.03 0.03 0.02 0.02 0.02 0.01 0.01 0.02 0.02 0.01
0.02 0.03 0.03 0.03 0.02 0.02 0.03 0.04 0.05 0.03 0.04 0.05 0.05 0.05 0.05 0.05 0.03 0.03 0.03 0.04 0.05 0.06 0.05 0.04 0.05 0.05 0.06 0.06 0.06 0.06 0.07 0.07 0.07 0.05 0.04 0.04 0.03 0.02 0.01 0.01 0.01 0.01 0.01
0.02 0.03 0.03 0.02 0.02 0.02 0.02 0.02 0.03 0.02 0.02 0.04 0.04 0.03 0.03 0.03 0.03 0.03 0.03 0.03 0.04 0.05 0.04 0.04 0.05 0.07 0.06 0.04 0.03 0.04 0.06 0.07 0.07 0.07 0.04 0.03 0.03 0.03 0.02 0.02 0.01 0.01 0.02
0.04 0.03 0.03 0.02 0.03 0.02 0.02 0.02 0.02 0.02 0.02 0.04 0.04 0.04 0.03 0.02 0.01 0.02 0.02 0.03 0.04 0.05 0.05 0.05 0.06 0.07 0.04 0.03 0.02 0.02 0.04 0.05 0.06 0.06 0.07 0.06 0.05 0.04 0.03 0.02 0.02 0.02 0.02
0.03 0.04 0.03 0.03 0.03 0.03 0.03 0.03 0.03 0.04 0.03 0.03 0.04 0.03 0.03 0.03 0.03 0.02 0.02 0.03 0.05 0.07 0.06 0.07 0.07 0.06 0.05 0.04 0.04 0.03 0.02 0.03 0.04 0.05 0.07 0.07 0.06 0.05 0.04 0.03 0.03 0.03 0.03
0.07 0.04 0.04 0.04 0.04 0.03 0.03 0.03 0.04 0.06 0.05 0.04 0.04 0.04 0.05 0.04 0.04 0.03 0.03 0.03 0.05 0.05 0.05 0.06 0.05 0.06 0.06 0.05 0.05 0.05 0.04 0.03 0.02 0.03 0.04 0.04 0.04 0.05 0.05 0.06 0.06 0.06 0.05
0.06 0.06 0.05 0.06 0.05 0.04 0.05 0.04 0.04 0.05 0.07 0.08 0.08 0.07 0.07 0.07 0.05 0.03 0.02 0.02 0.03 0.03 0.04 0.05 0.04 0.05 0.05 0.04 0.03 0.03 0.03 0.04 0.04 0.03 0.02 0.02 0.03 0.04 0.06 0.06 0.06 0.06 0.06
0.07 0.06 0.07 0.10 0.12 0.10 0.06 0.04 0.04 0.03 0.04 0.06 0.07 0.08 0.08 0.07 0.06 0.05 0.05 0.05 0.04 0.03 0.03 0.04 0.05 0.05 0.04 0.04 0.03 0.03 0.04 0.05 0.06 0.05 0.04 0.02 0.02 0.03 0.04 0.05 0.05 0.04 0.04
0.06 0.09 0.10 0.12 0.15 0.12 0.08 0.05 0.05 0.04 0.04 0.04 0.06 0.07 0.07 0.06 0.08 0.07 0.07 0.07 0.06 0.04 0.04 0.04 0.06 0.05 0.04 0.04 0.03 0.04 0.04 0.06 0.06 0.06 0.04 0.03 0.03 0.03 0.03 0.03 0.03 0.03 0.04
0.05 0.08 0.13 0.11 0.11 0.11 0.08 0.07 0.08 0.08 0.07 0.07 0.09 0.11 0.09 0.08 0.08 0.08 0.10 0.13 0.10 0.06 0.03 0.03 0.04 0.04 0.04 0.03 0.04 0.04 0.05 0.06 0.07 0.07 0.05 0.03 0.03 0.03 0.03 0.04 0.03 0.03 0.03
0.03 0.07 0.18 0.15 0.11 0.11 0.10 0.10 0.11 0.12 0.11 0.08 0.07 0.09 0.09 0.09 0.09 0.08 0.09 0.10 0.09 0.07 0.05 0.04 0.04 0.05 0.06 0.04 0.04 0.04 0.04 0.03 0.04 0.05 0.04 0.03 0.03 0.03 0.03 0.03 0.04 0.05 0.05
0.04 0.05 0.09 0.11 0.08 0.09 0.12 0.14 0.12 0.11 0.11 0.09 0.07 0.07 0.08 0.10 0.11 0.10 0.10 0.11 0.10 0.09 0.08 0.07 0.06 0.06 0.06 0.05 0.05 0.04 0.04 0.02 0.02 0.03 0.04 0.04 0.04 0.05 0.05 0.06 0.05 0.06 0.06
0.03 0.03 0.03 0.04 0.04 0.05 0.07 0.12 0.12 0.10 0.10 0.10 0.09 0.08 0.07 0.08 0.09 0.09 0.10 0.11 0.12 0.13 0.10 0.07 0.06 0.05 0.05 0.06 0.05 0.05 0.04 0.04 0.03 0.04 0.05 0.06 0.07 0.08 0.09 0.09 0.08 0.07 0.06
0.02 0.02 0.02 0.02 0.02 0.03 0.03 0.04 0.05 0.06 0.07 0.07 0.07 0.06 0.05 0.05 0.04 0.05 0.06 0.06 0.06 0.06 0.05 0.04 0.04 0.04 0.05 0.07 0.07 0.06 0.05 0.05 0.04 0.05 0.05 0.06 0.07 0.06 0.06 0.05 0.04 0.04 0.03
0.01 0.02 0.02 0.01 0.01 0.02 0.03 0.04 0.03 0.03 0.03 0.03 0.03 0.03 0.04 0.04 0.04 0.05 0.04 0.03 0.03 0.04 0.03 0.03 0.03 0.04 0.05 0.09 0.09 0.07 0.07 0.06 0.05 0.05 0.05 0.04 0.04 0.04 0.04 0.03 0.03 0.03 0.02
0.03 0.03 0.02 0.02 0.03 0.05 0.04 0.04 0.05 0.03 0.02 0.02 0.03 0.03 0.04 0.05 0.05 0.04 0.03 0.02 0.03 0.03 0.04 0.04 0.04 0.04 0.05 0.08 0.08 0.07 0.07 0.05 0.04 0.03 0.03 0.02 0.03 0.04 0.04 0.03 0.03 0.04 0.03
0.06 0.08 0.07 0.04 0.04 0.03 0.03 0.03 0.04 0.05 0.03 0.03 0.03 0.05 0.06 0.06 0.05 0.04 0.03 0.03 0.03 0.03 0.03 0.03 0.03 0.03 0.04 0.04 0.05 0.05 0.05 0.04 0.04 0.03 0.04 0.03 0.03 0.03 0.03 0.03 0.03 0.03 0.03
0.07 0.06 0.05 0.06 0.05 0.04 0.03 0.03 0.04 0.05 0.06 0.06 0.06 0.06 0.05 0.04 0.05 0.04 0.03 0.03 0.03 0.03 0.02 0.02 0.01 0.02 0.03 0.03 0.04 0.03 0.04 0.03 0.02 0.02 0.02 0.02 0.02 0.01 0.02 0.02 0.03 0.02 0.02
0.04 0.04 0.06 0.08 0.07 0.06 0.05 0.04 0.06 0.08 0.09 0.08 0.08 0.08 0.06 0.05 0.05 0.04 0.04 0.04 0.04 0.02 0.03 0.02 0.01 0.01 0.02 0.03 0.04 0.04 0.04 0.04 0.03 0.03 0.02 0.01 0.01 0.01 0.02 0.02 0.03 0.03 0.03
0.04 0.06 0.07 0.06 0.05 0.04 0.05 0.06 0.09 0.09 0.09 0.08 0.08 0.09 0.07 0.06 0.06 0.05 0.04 0.05 0.05 0.03 0.02 0.01 0.01 0.01 0.01 0.04 0.06 0.06 0.05 0.04 0.04 0.03 0.03 0.02 0.02 0.02 0.02 0.02 0.03 0.03 0.02
0.05 0.06 0.07 0.07 0.07 0.07 0.07 0.09 0.10 0.08 0.07 0.07 0.07 0.07 0.07 0.06 0.05 0.05 0.04 0.03 0.03 0.03 0.03 0.02 0.01 0.01 0.01 0.02 0.04 0.04 0.04 0.04 0.04 0.04 0.03 0.03 0.03 0.04 0.03 0.02 0.02 0.02 0.03
MSLP
1015.95 1016.16 1016.28 1016.33 1016.34 1016.35 1016.36 1016.40 1016.44 1016.49 1016.53 1016.56 1016.57 1016.58 1016.59 1016.64 1016.73 1016.88 1017.07 1017.29 1017.54 1017.78 1018.00 1018.20 1018.38 1018.52 1018.64 1018.75 1018.85 1018.95 1019.05 1019.16 1019.28 1019.42 1019.57 1019.73 1019.89 1020.04 1020.17 1020.28 1020.34 1020.38 1020.38
1015.95 1016.17 1016.32 1016.42 1016.48 1016.53 1016.57 1016.61 1016.65 1016.69 1016.71 1016.72 1016.70 1016.68 1016.65 1016.65 1016.68 1016.75 1016.87 1017.04 1017.24 1017.46 1017.69 1017.93 1018.15 1018.36 1018.54 1018.70 1018.83 1018.94 1019.03 1019.12 1019.22 1019.33 1019.46 1019.61 1019.77 1019.92 1020.07 1020.18 1020.25 1020.28 1020.27
1015.79 1016.03 1016.23 1016.39 1016.52 1016.62 1016.71 1016.78 1016.84 1016.88 1016.90 1016.89 1016.86 1016.80 1016.74 1016.67 1016.63 1016.62 1016.64 1016.72 1016.85 1017.02 1017.23 1017.48 1017.73 1017.99 1018.23 1018.44 1018.61 1018.74 1018.83 1018.91 1018.97 1019.05 1019.15 1019.27 1019.42 1019.57 1019.72 1019.84 1019.92 1019.96 1019.96
1015.52 1015.77 1016.02 1016.24 1016.44 1016.62 1016.76 1016.88 1016.97 1017.02 1017.04 1017.03 1016.99 1016.91 1016.82 1016.70 1016.59 1016.49 1016.41 1016.38 1016.41 1016.50 1016.66 1016.88 1017.14 1017.42 1017.70 1017.95 1018.16 1018.31 1018.42 1018.48 1018.52 1018.57 1018.63 1018.72 1018.85 1018.98 1019.13 1019.25 1019.35 1019.40 1019.42
1015.17 1015.43 1015.71 1015.99 1016.26 1016.50 1016.70 1016.86 1016.98 1017.06 1017.10 1017.10 1017.07 1017.00 1016.89 1016.75 1016.58 1016.40 1016.23 1016.09 1016.00 1015.99 1016.06 1016.21 1016.43 1016.71 1017.00 1017.27 1017.51 1017.69 1017.80 1017.87 1017.90 1017.92 1017.95 1018.01 1018.11 1018.23 1018.36 1018.49 1018.60 1018.67 1018.72
1014.79 1015.05 1015.35 1015.67 1015.99 1016.29 1016.54 1016.74 1016.89 1017.00 1017.06 1017.09 1017.09 1017.04 1016.95 1016.81 1016.62 1016.40 1016.15 1015.91 1015.70 1015.57 1015.52 1015.58 1015.73 1015.95 1016.22 1016.49 1016.74 1016.93 1017.07 1017.14 1017.17 1017.19 1017.20 1017.24 1017.31 1017.41 1017.53 1017.65 1017.77 1017.86 1017.93
1014.42 1014.67 1014.98 1015.33 1015.68 1016.01 1016.30 1016.53 1016.71 1016.85 1016.94 1017.01 1017.06 1017.06 1017.02 1016.92 1016.74 1016.50 1016.21 1015.89 1015.58 1015.32 1015.15 1015.08 1015.13 1015.27 1015.48 1015.72 1015.96 1016.16 1016.31 1016.41 1016.45 1016.47 1016.49 1016.52 1016.57 1016.65 1016.76 1016.87 1016.98 1017.09 1017.17
1014.07 1014.31 1014.63 1014.99 1015.36 1015.71 1016.02 1016.27 1016.47 1016.63 1016.76 1016.88 1016.98 1017.06 1017.09 1017.05 1016.93 1016.71 1016.40 1016.04 1015.65 1015.29 1014.99 1014.79 1014.72 1014.75 1014.88 1015.06 1015.27 1015.47 1015.64 1015.76 1015.83 1015.88 1015.91 1015.95 1016.00 1016.07 1016.15 1016.25 1016.35 1016.44 1016.52
1013.75 1013.99 1014.31 1014.67 1015.05 1015.41 1015.72 1015.98 1016.19 1016.37 1016.54 1016.71 1016.87 1017.03 1017.15 1017.19 1017.14 1016.98 1016.70 1016.32 1015.89 1015.45 1015.05 1014.74 1014.54 1014.46 1014.49 1014.60 1014.76 1014.94 1015.11 1015.26 1015.37 1015.46 1015.52 1015.58 1015.64 1015.70 1015.77 1015.84 1015.92 1015.99 1016.05
1013.42 1013.67 1013.99 1014.36 1014.74 1015.09 1015.41 1015.67 1015.89 1016.09 1016.29 1016.50 1016.72 1016.95 1017.15 1017.29 1017.33 1017.23 1017.01 1016.66 1016.22 1015.74 1015.28 1014.88 1014.57 1014.38 1014.31 1014.34 1014.44 1014.59 1014.76 1014.92 1015.07 1015.19 1015.30 1015.39 1015.48 1015.54 1015.60 1015.65 1015.69 1015.73 1015.76
1013.05 1013.31 1013.64 1014.01 1014.39 1014.76 1015.07 1015.34 1015.57 1015.77 1015.99 1016.23 1016.50 1016.79 1017.06 1017.27 1017.40 1017.39 1017.23 1016.94 1016.54 1016.07 1015.58 1015.13 1014.75 1014.47 1014.31 1014.26 1014.29 1014.39 1014.53 1014.70 1014.87 1015.03 1015.19 1015.32 1015.43 1015.51 1015.57 1015.60 1015.61 1015.61 1015.61
1012.61 1012.89 1013.23 1013.61 1014.00 1014.36 1014.68 1014.95 1015.19 1015.41 1015.63 1015.89 1016.19 1016.51 1016.83 1017.11 1017.30 1017.37 1017.30 1017.09 1016.75 1016.33 1015.86 1015.40 1014.98 1014.65 1014.42 1014.29 1014.25 1014.29 1014.39 1014.54 1014.71 1014.90 1015.08 1015.25 1015.40 1015.51 1015.58 1015.61 1015.61 1015.58 1015.54
1012.08 1012.38 1012.74 1013.12 1013.51 1013.89 1014.21 1014.50 1014.74 1014.97 1015.20 1015.47 1015.77 1016.10 1016.44 1016.76 1017.01 1017.15 1017.16 1017.04 1016.79 1016.45 1016.04 1015.62 1015.21 1014.86 1014.58 1014.38 1014.27 1014.24 1014.28 1014.39 1014.54 1014.73 1014.92 1015.12 1015.30 1015.44 1015.54 1015.59 1015.59 1015.56 1015.50
1011.46 1011.79 1012.15 1012.55 1012.95 1013.33 1013.67 1013.96 1014.22 1014.45 1014.69 1014.95 1015.25 1015.57 1015.92 1016.25 1016.53 1016.72 1016.81 1016.79 1016.65 1016.41 1016.09 1015.74 1015.38 1015.04 1014.73 1014.49 1014.31 1014.21 1014.17 1014.21 1014.32 1014.48 1014.67 1014.89 1015.09 1015.27 1015.41 1015.49 1015.52 1015.49 1015.43
1010.80 1011.14 1011.51 1011.92 1012.32 1012.71 1013.06 1013.37 1013.63 1013.87 1014.11 1014.37 1014.65 1014.96 1015.29 1015.61 1015.91 1016.15 1016.31 1016.37 1016.34 1016.22 1016.02 1015.77 1015.48 1015.17 1014.87 1014.60 1014.36 1014.18 1014.07 1014.03 1014.06 1014.17 1014.34 1014.55 1014.78 1014.99 1015.17 1015.30 1015.37 1015.37 1015.33
1010.11 1010.47 1010.85 1011.26 1011.67 1012.06 1012.42 1012.73 1013.01 1013.26 1013.50 1013.74 1014.01 1014.30 1014.62 1014.93 1015.24 1015.50 1015.72 1015.87 1015.94 1015.93 1015.86 1015.71 1015.51 1015.27 1015.00 1014.71 1014.44 1014.19 1013.99 1013.86 1013.82 1013.87 1013.99 1014.18 1014.41 1014.64 1014.86 1015.04 1015.15 1015.20 1015.19
1009.44 1009.82 1010.22 1010.62 1011.03 1011.42 1011.78 1012.09 1012.38 1012.63 1012.87 1013.12 1013.37 1013.65 1013.95 1014.26 1014.57 1014.86 1015.12 1015.34 1015.50 1015.60 1015.64 1015.61 1015.51 1015.34 1015.11 1014.84 1014.55 1014.26 1013.99 1013.78 1013.66 1013.63 1013.69 1013.84 1014.05 1014.30 1014.54 1014.75 1014.91 1015.00 1015.03
1008.80 1009.21 1009.62 1010.03 1010.44 1010.82 1011.16 1011.47 1011.75 1012.01 1012.25 1012.50 1012.75 1013.03 1013.33 1013.64 1013.95 1014.26 1014.56 1014.84 1015.08 1015.28 1015.41 1015.49 1015.48 1015.40 1015.23 1014.99 1014.70 1014.39 1014.08 1013.82 1013.62 1013.52 1013.52 1013.62 1013.80 1014.02 1014.27 1014.50 1014.69 1014.82 1014.87
1008.17 1008.62 1009.06 1009.48 1009.88 1010.24 1010.57 1010.87 1011.13 1011.38 1011.63 1011.88 1012.15 1012.44 1012.74 1013.07 1013.40 1013.74 1014.07 1014.40 1014.70 1014.96 1015.18 1015.34 1015.42 1015.42 1015.32 1015.14 1014.88 1014.58 1014.26 1013.97 1013.72 1013.57 1013.51 1013.55 1013.68 1013.87 1014.10 1014.32 1014.52 1014.65 1014.72
1007.54 1008.04 1008.51 1008.94 1009.33 1009.68 1009.98 1010.25 1010.50 1010.74 1010.98 1011.25 1011.53 1011.85 1012.18 1012.54 1012.90 1013.27 1013.64 1014.00 1014.34 1014.66 1014.94 1015.16 1015.32 1015.39 1015.36 1015.25 1015.05 1014.78 1014.49 1014.20 1013.94 1013.75 1013.65 1013.64 1013.71 1013.85 1014.03 1014.23 1014.40 1014.53 1014.59
1006.86 1007.41 1007.92 1008.36 1008.75 1009.08 1009.35 1009.59 1009.82 1010.04 1010.29 1010.57 1010.89 1011.24 1011.62 1012.02 1012.43 1012.84 1013.25 1013.64 1014.01 1014.36 1014.67 1014.93 1015.14 1015.27 1015.31 1015.27 1015.14 1014.95 1014.71 1014.45 1014.21 1014.01 1013.89 1013.83 1013.85 1013.94 1014.07 1014.21 1014.34 1014.44 1014.48
1006.11 1006.71 1007.26 1007.72 1008.11 1008.42 1008.67 1008.89 1009.09 1009.30 1009.55 1009.85 1010.21 1010.61 1011.05 1011.51 1011.98 1012.44 1012.88 1013.29 1013.68 1014.04 1014.37 1014.65 1014.88 1015.05 1015.15 1015.17 1015.12 1015.01 1014.84 1014.65 1014.46 1014.28 1014.15 1014.08 1014.06 1014.09 1014.16 1014.24 1014.31 1014.37 1014.38
1005.28 1005.93 1006.52 1007.01 1007.40 1007.71 1007.94 1008.13 1008.32 1008.53 1008.79 1009.12 1009.52 1009.98 1010.49 1011.02 1011.55 1012.06 1012.54 1012.98 1013.38 1013.73 1014.04 1014.32 1014.55 1014.73 1014.87 1014.95 1014.96 1014.93 1014.85 1014.74 1014.61 1014.48 1014.38 1014.30 1014.26 1014.25 1014.26 1014.29 1014.31 1014.32 1014.29
1004.41 1005.11 1005.73 1006.25 1006.66 1006.97 1007.20 1007.38 1007.56 1007.78 1008.06 1008.43 1008.88 1009.41 1009.99 1010.59 1011.19 1011.76 1012.27 1012.72 1013.11 1013.45 1013.73 1013.97 1014.18 1014.35 1014.49 1014.60 1014.67 1014.70 1014.70 1014.67 1014.62 1014.55 1014.49 1014.44 1014.39 1014.36 1014.34 1014.32 1014.30 1014.27 1014.21
1003.59 1004.32 1004.98 1005.53 1005.96 1006.29 1006.53 1006.72 1006.91 1007.15 1007.46 1007.87 1008.37 1008.96 1009.61 1010.28 1010.94 1011.55 1012.09 1012.55 1012.93 1013.23 1013.47 1013.66 1013.82 1013.95 1014.07 1014.18 1014.28 1014.35 1014.41 1014.45 1014.47 1014.48 1014.47 1014.45 1014.42 1014.40 1014.36 1014.32 1014.27 1014.21 1014.14
1002.90 1003.67 1004.36 1004.93 1005.40 1005.75 1006.01 1006.23 1006.45 1006.71 1007.06 1007.51 1008.06 1008.70 1009.40 1010.13 1010.83 1011.47 1012.03 1012.49 1012.84 1013.10 1013.28 1013.41 1013.51 1013.58 1013.66 1013.74 1013.83 1013.93 1014.03 1014.12 1014.20 1014.26 1014.31 1014.34 1014.34 1014.33 1014.30 1014.26 1014.20 1014.13 1014.05
Thickness
5763 5762 5761 5761 5760 5760 5759 5759 5759 5758 5758 5758 5758 5757 5756 5755 5754 5753 5753 5752 5751 5750 5748 5747 5746 5744 5742 5741 5740 5738 5737 5736 5734 5733 5732 5730 5728 5727 5725 5723 5722 5720 5719
5764 5763 5762 5761 5760 5760 5759 5759 5758 5758 5758 5758 5757 5757 5756 5755 5754 5753 5752 5752 5751 5750 5748 5747 5746 5745 5743 5742 5740 5739 5738 5736 5735 5734 5732 5731 5729 5727 5726 5724 5723 5721 5719
5765 5764 5762 5761 5761 5760 5760 5759 5758 5757 5757 5756 5756 5756 5755 5755 5754 5753 5753 5752 5751 5749 5748 5747 5746 5744 5743 5742 5741 5739 5738 5737 5735 5734 5733 5731 5730 5728 5727 5725 5723 5721 5720
5766 5765 5763 5762 5761 5761 5760 5759 5757 5755 5754 5754 5754 5754 5754 5754 5754 5754 5753 5752 5750 5749 5748 5747 5745 5744 5743 5742 5741 5740 5738 5737 5735 5734 5733 5731 5730 5728 5727 5725 5723 5721 5719
5767 5765 5764 5763 5762 5761 5759 5759 5757 5755 5753 5752 5752 5753 5753 5753 5754 5754 5753 5751 5750 5749 5748 5747 5745 5744 5743 5742 5741 5740 5738 5737 5736 5735 5733 5732 5730 5729 5727 5725 5723 5721 5720
5768 5766 5764 5763 5762 5760 5758 5757 5755 5754 5753 5752 5751 5750 5751 5752 5752 5752 5752 5751 5749 5749 5748 5746 5745 5744 5743 5742 5741 5740 5738 5737 5736 5735 5734 5732 5731 5729 5728 5726 5724 5722 5720
5768 5766 5764 5762 5761 5759 5758 5756 5754 5752 5750 5750 5746 5744 5747 5749 5750 5751 5751 5750 5749 5748 5747 5746 5745 5744 5743 5742 5741 5739 5738 5737 5736 5735 5733 5732 5730 5729 5728 5726 5724 5722 5720
5768 5766 5764 5762 5761 5759 5757 5755 5754 5750 5748 5748 5744 5738 5735 5738 5744 5749 5749 5748 5748 5747 5746 5745 5744 5743 5742 5741 5741 5739 5738 5737 5736 5734 5733 5732 5730 5729 5727 5725 5724 5722 5720
5769 5767 5765 5763 5761 5759 5756 5755 5753 5750 5746 5746 5746 5740 5732 5729 5735 5741 5745 5746 5746 5745 5745 5744 5743 5743 5741 5740 5740 5739 5738 5736 5735 5734 5732 5731 5729 5728 5727 5725 5723 5721 5720
5769 5767 5765 5763 5760 5758 5756 5755 5754 5751 5748 5744 5744 5744 5742 5739 5732 5731 5737 5742 5743 5743 5742 5743 5742 5741 5741 5739 5738 5737 5737 5735 5734 5733 5731 5730 5728 5727 5726 5724 5723 5721 5719
5768 5766 5764 5762 5759 5758 5756 5754 5753 5751 5749 5746 5743 5742 5740 5738 5736 5730 5728 5733 5737 5739 5740 5740 5740 5740 5739 5738 5737 5735 5734 5734 5733 5732 5730 5729 5727 5726 5725 5723 5722 5720 5718
5765 5765 5763 5761 5759 5757 5755 5754 5752 5750 5748 5746 5744 5742 5739 5735 5733 5731 5727 5727 5729 5734 5737 5738 5738 5738 5737 5736 5735 5734 5732 5731 5731 5730 5729 5728 5726 5725 5724 5722 5721 5719 5717
5763 5762 5762 5759 5757 5756 5755 5753 5751 5748 5747 5745 5743 5741 5739 5737 5736 5733 5728 5725 5726 5729 5732 5734 5736 5736 5735 5734 5733 5732 5731 5730 5729 5728 5728 5727 5725 5724 5723 5721 5719 5718 5716
5764 5762 5760 5758 5756 5755 5754 5751 5749 5747 5745 5743 5742 5740 5738 5737 5735 5733 5729 5724 5720 5721 5725 5728 5733 5733 5733 5732 5731 5730 5729 5729 5728 5727 5726 5725 5724 5722 5721 5720 5718 5716 5714
5764 5761 5759 5757 5755 5753 5751 5749 5746 5745 5743 5741 5739 5738 5736 5735 5734 5733 5730 5727 5720 5715 5717 5723 5726 5730 5730 5729 5728 5728 5727 5726 5726 5725 5724 5723 5722 5720 5719 5717 5715 5714 5711
5761 5759 5757 5754 5752 5750 5749 5747 5744 5742 5740 5738 5737 5735 5734 5733 5732 5730 5728 5727 5724 5719 5715 5721 5723 5726 5726 5725 5725 5724 5724 5723 5723 5722 5721 5720 5719 5717 5715 5714 5712 5711 5708
5759 5756 5754 5752 5749 5747 5746 5744 5742 5740 5737 5736 5735 5733 5731 5730 5728 5727 5726 5724 5722 5719 5714 5717 5720 5722 5721 5719 5720 5720 5719 5719 5718 5718 5718 5717 5715 5713 5712 5710 5708 5707 5704
5756 5754 5751 5749 5747 5744 5742 5740 5738 5737 5735 5732 5731 5730 5728 5728 5725 5723 5722 5720 5719 5717 5714 5712 5714 5715 5715 5715 5714 5714 5714 5713 5713 5714 5713 5712 5711 5709 5707 5705 5704 5702 5700
5753 5751 5748 5745 5743 5741 5739 5737 5735 5734 5732 5730 5728 5726 5725 5723 5721 5719 5718 5716 5715 5715 5712 5709 5709 5710 5709 5709 5707 5707 5707 5707 5707 5708 5707 5706 5706 5704 5702 5700 5699 5697 5695
5749 5747 5744 5742 5739 5738 5736 5734 5732 5730 5728 5727 5725 5723 5721 5719 5717 5715 5714 5712 5711 5708 5707 5705 5703 5703 5702 5703 5701 5699 5698 5699 5700 5701 5701 5700 5699 5698 5696 5694 5693 5691 5689
5745 5742 5739 5737 5735 5733 5732 5730 5728 5726 5723 5721 5720 5719 5717 5717 5715 5713 5711 5708 5706 5703 5700 5698 5697 5696 5695 5694 5694 5693 5692 5692 5693 5693 5692 5692 5692 5690 5689 5688 5686 5685 5683
5739 5736 5734 5732 5730 5729 5728 5726 5724 5721 5718 5716 5714 5713 5712 5711 5709 5708 5707 5705 5703 5699 5695 5692 5691 5690 5690 5690 5689 5688 5684 5682 5681 5685 5684 5684 5684 5683 5683 5682 5681 5679 5677
5733 5730 5728 5726 5724 5723 5722 5721 5719 5716 5713 5711 5708 5706 5706 5705 5702 5700 5699 5698 5697 5696 5695 5691 5687 5687 5686 5686 5684 5682 5679 5677 5677 5679 5677 5675 5676 5675 5676 5675 5674 5673 5671
5727 5724 5721 5719 5717 5716 5715 5714 5712 5710 5707 5705 5703 5701 5699 5697 5697 5694 5691 5690 5689 5689 5688 5687 5686 5685 5684 5683 5681 5679 5677 5673 5672 5672 5672 5668 5668 5667 5668 5668 5667 5666 5664
5720 5717 5714 5712 5710 5710 5709 5708 5705 5702 5699 5697 5696 5695 5693 5691 5690 5687 5684 5682 5682 5682 5683 5682 5681 5680 5679 5677 5676 5672 5668 5664 5662 5663 5664 5661 5660 5659 5659 5659 5659 5657 5656
5713 5710 5707 5705 5703 5702 5702 5700 5697 5694 5690 5689 5687 5687 5686 5683 5682 5679 5677 5675 5673 5674 5674 5674 5673 5673 5672 5671 5669 5667 5664 5658 5655 5655 5657 5654 5652 5649 5647 5649 5650 5649 5647